Location: Bowden
(51.9167°N, 114.0333°W)
Time: 01:38:40
(UTC+00:00)

Envisat - Pass Details

Date: 08 December 2021
Orbit: 764 x 766 km, 98.2° (Epoch: 28 January)

Event Time Altitude Azimuth Distance (km) Brightness Sun altitude
Rises 14:40:59 0° 4° (N) 3,248 6.0 -7.3°
Reaches altitude 10° 14:44:09 10° 344° (NNW) 2,317 5.1 -6.9°
Maximum altitude 14:47:07 16° 308° (NW) 1,937 4.5 -6.5°
Drops below altitude 10° 14:50:04 10° 272° (W) 2,308 4.9 -6.1°
Sets 14:53:13 0° 251° (WSW) 3,229 5.8 -5.7°
